Showing default

GLOBALSTAR M084, 38040

Orbit data source: Space-Track

GLOBALSTAR M084, 38040 is a payload satellite owned by Globalstar (US) in LEO that was launched on Wed, 28 Dec 2011 UTC via a SOYUZ-2-1A launch vehicle from the Tyuratam Missile And Space Complex (TTMTR). Payload-class satellites include a variety of spacecraft equipped with specific instruments for various scientific and technological missions. These include communications satellites like Starlink; space stations such as the ISS; scientific satellites like the Hubble; Earth observation satellites from companies like Planet Labs, Umbra, and HawkEye 360; GPS; miniature CubeSats for education and research; and military/defense satellites.

Loading next visibility...
Identifier
38040, 2011-080A
Orbit
LEO
Country
Flag of UnknownUnknown / GLOB
Related business
Manufacturer
Thales Alenia
Mission
Operational Commercial Communications
Bus & Motor
PRISMA?, LS-400 AOCS?
Mass
715 kg wet, ~500 kg dry
Launch date (UTC)
2011-12-28 (14 years ago)
Launch vehicle
SOYUZ-2-1A
Launch site
Tyuratam Missile And Space Complex (TTMTR)
Object type
Payload
Rocket body
Debris
Shape & HBR
Trap Cyl + 2 Pan, 6.0 m
Radar Cross Section
20.931 m², Large (>1 m²)

Expand to show TLE details & history
Last TLE update: 23 hours ago

TLE from 23 hours ago
0 GLOBALSTAR M084
1 38040U 11080A   25261.05298877 -.00000100  00000-0  23307-4 0  9998
2 38040  51.9993 125.7577 0000490  90.4717  59.4947 12.62268885634399
Epoch: 2025-09-18T01:16Z
TLE epoch observation values (Epoch: 2025-09-18T01:16:18.229Z)
Latitude
23.28047°
Longitude
-90.08094°
Altitude
1,414.023 km
Speed
7.156 km/s
True Right ascension
19h 04m 51s
True Declination
23° 09' 59"
Sunlit
Object was in daylight at epoch
Visualization orbit readout
Latitude
Unknown
Longitude
Unknown
Altitude
Unknown
Speed
Unknown
Apparent Right ascension
Unknown
Apparent Declination
Unknown
Sunlit
N/A
Visualization observer readout
Local Sidereal Time
17:16:39
Azimuth
Unknown
Elevation
Unknown
Doppler factor
Unknown
Orbital elements
Apogee altitude
1,414.368 km
Perigee altitude
1,413.604 km
Semi-major axis
7,792.123 km
Eccentricity
0.00005
Inclination
51.9993°
RAAN
125.7577°
Arg. of periapsis
90.4717°
True anomaly
59.49954°
Mean anomaly
59.4947°
Eccentric anomaly
59.49712°
Mean motion
3.15544 °/min
Orbital period
114.09 mins
BSTAR
0.000023307
Loading maneuver chart data...
Computing Atmospheric mass density...
Loading historical data...
Loading historical data...
Loading historical data...
Loading historical data...
Loading historical data...
Loading historical data...
Loading historical data...

Documentation

Showing up to 5 results
|